Location: Mesa Vista Observatory
(35.5777°N, 105.6987°W)
Time: 06:38:41
(UTC-06:00)

SR - Visible Passes

Search period start: 26 September 2020 00:00
Search period end: 06 October 2020 00:00
Orbit: 583 x 873 km, 66.7° (Epoch: 26 September)

Date Brightness Start Highest point End Pass type
(mag) Time Alt. Az. Time Alt. Az. Time Alt. Az.
26 Sep ? 19:36:48 10° NNW 19:41:22 44° ENE 19:46:17 10° SE visible
26 Sep ? 21:19:43 10° WNW 21:23:08 19° WSW 21:25:57 13° SW visible
27 Sep ? 20:29:04 10° NW 20:33:36 41° WSW 20:38:30 10° S visible
28 Sep ? 19:39:09 10° NNW 19:43:59 89° ENE 19:49:13 10° SSE visible
29 Sep ? 20:32:25 10° WNW 20:36:02 21° WSW 20:39:50 10° SSW visible
30 Sep ? 19:41:52 10° NW 19:46:30 44° WSW 19:51:29 10° S visible
02 Oct ? 19:45:08 10° WNW 19:48:56 22° WSW 19:52:57 10° SSW visible
04 Oct ? 19:50:18 10° W 19:51:15 10° WSW 19:52:13 10° WSW visible
